Wind_Speed
64 63 63 66 67 65 63 62 60 58 56 55 54 54 56 57 59 61 62 62 60 58 58 59 56 54 55 58 61 62 62 64 65 63 61 59 58 59 58 55 53 51 51 52 51 53 53 52 53 54 55 54 52 55 58 56 53 54 54 52 49 45 40 38 35 33 31 30 29 29 30 31 32 32 31 31 30 29 28 27 27 27 29 30 30 29
65 64 67 69 69 67 65 63 60 58 57 56 56 56 57 58 60 61 61 62 60 56 57 58 55 53 54 57 60 61 60 62 62 60 57 57 57 57 55 53 51 50 49 49 50 52 53 53 54 55 56 57 57 57 57 57 56 58 62 62 59 54 47 42 39 37 36 36 35 33 32 32 33 33 32 32 31 30 29 30 30 31 31 31 31 31
64 65 69 71 69 67 65 62 61 60 60 60 59 57 57 58 60 60 60 61 59 54 56 57 52 52 55 56 59 59 58 60 59 58 55 54 54 53 52 52 50 49 48 48 50 52 53 52 53 55 58 60 63 63 59 58 58 58 61 62 61 58 51 45 41 40 40 40 39 38 36 34 34 34 34 34 33 32 32 33 33 33 33 32 32 32
62 64 67 68 67 66 65 63 62 62 62 61 60 59 59 59 59 60 60 59 56 54 55 54 49 51 55 55 57 57 55 57 57 55 53 50 49 48 48 50 49 48 47 48 49 50 50 50 49 52 57 61 65 66 63 60 58 58 59 59 58 57 53 49 46 45 44 43 42 42 40 38 36 36 37 37 36 35 34 34 34 34 33 33 33 33
62 64 65 64 63 63 63 63 63 63 63 62 61 61 61 60 59 60 60 56 54 54 54 52 48 50 53 53 54 54 53 55 55 52 48 44 43 44 46 47 48 47 46 46 47 47 46 46 46 47 53 62 66 66 65 63 60 58 58 58 57 57 55 53 52 50 47 45 44 43 41 40 39 40 40 40 39 38 35 34 34 34 34 34 34 35
63 64 62 62 62 61 61 61 61 62 62 61 61 62 62 61 59 60 60 55 53 54 53 49 47 48 50 51 51 51 51 52 51 47 43 40 40 41 44 47 49 48 48 47 45 44 43 43 44 44 50 62 68 67 67 66 63 61 60 60 59 58 56 54 53 52 50 48 47 46 44 43 42 43 43 43 42 40 37 36 35 35 34 35 35 35
62 63 61 60 60 59 60 60 60 60 59 59 60 60 59 59 58 58 57 54 52 52 49 47 45 44 47 49 48 47 48 49 47 43 39 38 39 41 45 48 49 49 49 47 44 42 42 43 43 43 48 59 67 68 67 66 65 63 61 60 58 57 56 53 52 51 50 49 48 47 46 45 45 46 45 45 44 43 41 38 37 37 36 36 36 35
61 60 58 59 59 58 58 59 58 57 57 58 58 57 56 57 56 54 53 52 51 48 45 44 42 41 45 47 45 45 46 46 45 40 37 38 40 42 45 47 47 48 48 45 43 43 43 43 43 44 47 54 62 66 67 66 65 65 64 62 59 57 55 53 51 50 49 48 48 47 46 45 45 45 45 45 45 45 43 41 40 39 39 38 36 35
57 55 55 56 55 54 57 57 56 54 55 56 54 53 52 52 52 50 49 49 48 44 41 41 38 39 44 44 42 43 43 43 43 40 37 39 41 42 45 46 46 46 46 45 44 44 43 42 42 45 47 49 53 58 62 64 65 65 65 64 62 58 55 52 50 49 49 49 49 49 48 46 45 43 42 43 44 45 44 43 42 40 39 38 37 36
53 52 52 51 50 53 56 54 51 51 53 52 50 49 48 48 48 47 45 46 44 40 39 38 36 38 43 42 40 41 41 41 41 39 37 38 40 42 43 45 45 45 44 44 44 44 43 42 43 45 46 46 48 51 55 59 61 64 65 63 61 58 54 51 50 50 51 52 52 51 50 48 46 44 41 40 41 42 43 43 42 41 39 38 37 36
51 50 49 47 49 53 54 50 48 50 50 48 45 45 45 44 45 43 42 42 40 37 38 38 34 37 42 41 39 40 40 40 40 38 37 37 39 40 41 42 43 43 42 42 42 42 41 41 43 44 44 45 47 48 50 54 57 61 63 62 60 58 56 53 51 52 53 54 55 55 54 52 50 49 46 43 41 40 40 41 40 40 39 38 37 36
48 47 46 47 50 51 50 47 47 48 46 44 43 42 42 42 41 39 38 38 36 35 39 38 34 36 40 40 39 40 39 39 39 37 36 36 37 38 39 40 40 40 39 39 39 39 40 41 41 41 42 44 47 47 48 50 53 57 61 62 62 60 59 58 57 55 54 55 56 56 56 54 54 53 51 49 47 44 43 43 42 41 39 38 37 37
43 44 44 46 48 48 46 45 44 44 43 42 41 40 39 39 37 37 36 35 34 36 40 37 32 33 39 40 38 38 38 37 37 36 35 35 35 36 37 37 37 37 36 35 36 36 37 38 38 39 42 44 46 48 49 50 51 53 56 59 61 62 62 61 61 59 58 56 55 54 53 53 54 54 53 52 51 50 49 48 46 44 42 40 39 39
41 42 42 44 45 44 44 42 42 42 41 40 39 37 36 35 35 35 35 34 33 36 38 34 30 32 37 39 37 36 36 35 35 35 34 33 33 35 35 34 33 32 31 31 32 33 34 35 37 40 43 45 47 49 50 51 52 51 50 50 53 57 59 60 60 60 58 56 54 52 51 51 51 51 51 51 51 51 50 50 48 46 44 43 42 42
40 41 41 43 44 43 42 42 41 39 39 38 36 34 33 33 33 34 33 32 33 35 35 32 28 30 35 37 35 35 35 34 34 33 31 29 29 29 27 26 27 28 27 27 29 31 33 35 39 42 42 45 48 49 50 50 52 52 49 46 48 51 54 56 57 57 57 55 53 51 50 49 49 49 49 49 49 49 49 49 48 46 45 45 44 44
39 39 41 42 42 41 41 41 39 37 36 35 32 31 32 32 32 32 31 30 31 32 32 29 26 29 34 36 34 34 34 33 32 29 26 26 27 27 25 22 20 17 16 18 21 27 33 36 39 40 40 43 46 49 49 49 50 50 49 49 50 51 52 54 55 55 55 55 54 52 50 49 48 47 47 47 46 46 45 45 44 44 44 43 43 43
38 38 40 40 40 40 41 39 36 34 33 31 30 31 32 32 30 30 29 29 29 30 29 27 26 29 33 34 34 33 32 31 28 25 25 27 28 26 21 15 9 7 11 14 18 25 34 37 39 40 40 41 44 47 48 48 48 49 48 49 51 51 50 51 52 53 53 54 53 52 49 47 46 45 44 43 42 42 41 41 40 40 39 39 40 40
37 39 39 39 39 40 39 37 35 33 31 31 31 32 32 31 30 30 29 28 28 27 27 27 26 29 32 33 33 32 29 27 24 23 25 26 25 23 20 19 16 15 19 20 21 27 34 39 39 41 43 44 44 45 47 47 47 48 48 48 49 49 49 48 49 50 52 53 51 49 46 44 42 40 39 39 38 39 39 39 39 38 37 37 38 38
37 39 39 38 39 39 37 36 35 33 31 32 32 32 31 30 30 29 28 28 27 26 26 27 27 29 31 32 31 30 26 23 22 23 24 24 24 24 26 30 28 25 23 23 27 34 40 44 44 43 46 48 47 46 47 47 47 47 46 45 45 45 45 44 45 47 49 50 49 47 44 42 41 40 39 38 38 39 39 38 38 37 37 36 37 37
36 38 39 37 38 36 35 35 34 32 31 32 32 31 31 30 29 28 28 27 26 25 26 27 27 28 31 31 30 27 24 24 25 24 24 24 25 25 27 30 31 30 29 30 34 39 45 50 50 47 46 46 46 46 46 46 46 45 43 39 37 37 35 33 33 35 38 40 40 40 40 40 40 40 39 38 38 37 37 36 36 36 36 37 36 37
36 38 38 36 35 35 34 34 32 30 31 31 31 31 31 29 28 27 27 26 26 26 26 27 28 30 31 30 28 25 25 27 28 26 26 28 28 28 29 29 26 24 25 29 33 38 43 45 45 45 45 42 41 42 43 44 44 44 42 40 37 36 32 28 27 32 35 35 34 36 37 37 37 37 37 37 35 34 35 35 36 37 37 38 38 39
37 38 38 36 34 34 33 32 31 30 30 30 30 31 30 29 28 27 26 26 26 26 27 28 30 31 31 30 27 26 27 29 30 29 31 33 31 31 32 29 26 27 30 33 36 41 45 44 42 44 44 41 39 39 40 42 43 43 43 43 44 43 41 38 36 36 36 34 33 34 35 35 35 34 34 35 35 36 38 38 38 38 39 39 39 39
37 38 39 37 34 33 32 32 31 30 29 28 29 30 29 28 27 27 26 26 26 27 28 29 31 32 31 31 29 28 29 31 32 33 35 36 34 33 30 27 35 42 43 43 45 47 48 48 46 45 44 43 42 41 39 39 40 41 43 43 44 45 46 46 43 38 35 34 34 35 36 36 36 35 35 36 38 39 40 39 39 39 39 39 40 40
37 38 38 37 34 33 32 32 31 30 28 28 28 29 29 28 28 27 27 26 26 28 29 30 31 33 33 33 32 32 33 34 36 38 40 39 37 37 33 33 43 50 50 50 51 50 49 48 44 40 39 39 41 42 40 37 35 37 40 41 41 42 43 44 43 38 35 34 33 34 36 37 37 36 36 38 38 38 38 37 37 37 37 38 38 39
38 38 38 37 35 34 33 32 31 30 28 28 28 29 30 29 28 27 27 26 27 28 29 30 32 34 34 35 35 36 37 38 41 42 42 40 39 40 37 38 46 51 52 51 51 50 50 48 44 40 38 39 40 40 41 39 35 35 37 38 38 39 38 38 40 38 33 30 30 33 36 37 37 36 36 36 35 34 33 34 34 35 35 36 38 38
40 40 39 38 36 35 34 33 32 32 30 29 28 30 30 30 28 27 27 27 27 28 30 31 33 34 35 36 37 38 40 42 45 46 45 42 41 37 30 32 42 49 52 52 51 52 52 50 48 45 41 41 40 39 39 41 39 36 36 36 35 36 36 35 38 39 35 32 35 37 37 37 36 35 35 34 33 32 32 34 35 35 36 38 39 39
41 40 40 39 38 37 36 36 35 34 32 30 30 30 31 30 29 28 28 28 28 29 31 33 35 35 36 37 38 40 42 44 47 49 47 45 44 37 29 31 40 47 52 53 52 53 53 53 53 49 43 42 41 37 35 38 40 38 37 37 35 34 34 35 37 38 37 36 37 37 36 36 34 32 32 31 31 33 33 35 37 37 38 38 39 38
42 41 41 40 40 39 38 37 37 36 35 33 32 31 31 31 30 29 29 29 29 30 31 34 36 36 37 38 40 42 43 45 49 51 49 47 47 44 38 39 43 47 50 50 52 54 55 55 56 51 45 41 40 39 36 35 37 38 37 37 36 34 35 37 38 38 38 36 35 34 34 34 34 32 31 31 33 35 36 37 38 38 38 39 39 39
43 43 42 41 41 41 39 39 39 38 37 36 34 33 32 32 31 31 30 30 31 31 31 34 37 38 39 40 42 44 46 48 52 54 53 51 51 50 45 43 45 49 50 49 51 55 57 57 57 54 49 44 41 40 39 37 36 36 35 35 35 35 37 40 40 40 39 36 34 35 35 35 35 34 33 34 35 37 37 37 38 39 40 41 41 41
46 45 44 43 43 42 41 40 40 40 38 37 36 35 34 33 32 32 31 31 31 32 33 35 38 40 41 43 45 47 48 50 53 56 56 54 54 54 50 46 46 50 52 52 51 55 57 59 59 56 53 51 46 41 40 40 39 39 38 37 37 38 40 41 42 42 40 36 34 36 38 37 36 36 37 38 40 40 39 39 39 40 42 43 44 45
47 47 46 45 45 44 43 42 42 41 40 39 38 37 36 35 34 33 32 31 32 33 34 36 38 41 43 45 47 49 50 52 55 58 59 58 58 57 53 50 47 48 51 52 52 54 56 58 59 58 56 56 53 47 43 43 44 44 44 44 44 44 43 43 44 45 43 40 39 40 41 41 40 40 41 42 43 43 42 41 42 43 44 46 49 51
48 48 48 48 47 46 45 44 44 43 42 41 40 39 38 37 35 34 33 33 32 33 34 36 38 42 45 47 49 50 52 54 57 60 62 61 61 59 57 53 50 48 48 48 49 53 55 56 58 59 58 58 58 56 52 49 47 48 49 50 50 50 49 47 47 49 48 47 45 44 45 47 47 46 47 48 47 47 46 47 48 50 52 53 54 55
49 49 50 49 48 48 47 47 46 45 45 43 42 40 40 39 37 36 35 35 34 34 35 37 39 42 45 48 50 52 54 56 58 62 64 64 63 62 60 57 53 51 50 50 50 53 55 55 55 57 58 58 59 60 60 57 53 51 51 53 54 54 54 52 51 52 53 53 51 50 50 51 52 52 52 53 52 52 52 52 53 54 55 55 55 54
50 50 50 50 50 50 50 50 49 48 47 46 45 43 42 41 39 38 37 37 36 37 37 38 39 41 45 48 50 53 54 56 59 62 65 65 64 65 64 61 57 54 52 52 53 54 55 56 55 56 58 60 61 62 63 62 60 58 56 57 57 58 58 58 56 55 56 58 58 57 57 57 56 55 55 55 55 55 55 54 54 54 55 55 56 55
52 52 51 51 51 52 52 52 51 50 49 49 47 46 44 43 42 40 39 38 38 39 39 39 39 42 44 47 49 52 53 56 58 61 64 65 66 66 66 65 62 58 55 55 55 55 56 57 56 56 59 63 65 65 65 64 64 64 62 62 61 61 61 61 61 60 59 61 62 62 62 62 61 61 59 58 57 58 57 57 57 57 57 58 58 58
53 51 51 51 51 51 52 52 51 50 50 49 48 46 45 45 44 42 40 40 40 41 41 40 40 42 44 47 49 50 52 55 57 58 62 65 67 68 68 67 65 62 61 60 59 58 59 59 59 59 60 62 65 67 67 67 66 66 66 66 65 64 64 64 64 64 64 64 65 66 66 65 65 65 64 63 62 62 62 61 61 61 61 62 62 62
54 52 51 51 51 51 52 53 52 51 49 48 48 47 47 46 45 45 44 44 43 43 43 42 41 42 43 46 48 51 52 54 56 58 61 65 67 69 69 68 67 66 65 64 64 63 62 62 62 62 62 63 65 67 68 68 68 69 69 69 68 68 67 67 67 67 67 68 68 69 70 70 69 69 68 68 67 67 67 67 67 67 67 67 68 68
55 54 54 53 53 53 53 53 53 52 49 48 48 49 49 48 47 47 47 47 47 46 46 45 44 44 44 44 46 50 53 55 56 58 60 63 66 68 69 69 69 69 68 66 67 67 67 66 66 66 66 65 66 67 68 69 69 69 70 70 71 71 71 71 71 71 71 71 71 71 72 73 73 73 73 72 71 71 71 71 71 71 71 72 72 73
55 56 56 57 57 56 55 55 56 55 52 49 49 50 50 49 50 50 50 51 51 49 48 47 46 46 46 46 46 48 52 54 56 59 61 62 64 67 69 70 70 70 69 66 67 69 71 71 71 70 70 69 68 69 70 70 70 70 70 71 73 73 74 74 75 75 75 75 74 74 74 75 75 75 76 76 76 76 77 77 77 77 77 76 76 76
57 57 58 59 59 58 57 58 58 58 55 52 51 52 52 51 52 53 54 54 53 51 50 49 49 49 49 50 50 50 51 53 55 59 61 62 62 64 67 70 71 71 71 68 67 69 73 75 75 74 73 72 71 71 71 72 72 72 72 73 75 76 76 76 77 78 79 80 79 78 77 76 76 77 78 79 80 80 81 82 82 82 82 81 81 80
60 60 60 61 61 60 59 60 60 60 59 56 54 54 55 54 55 56 56 56 55 53 51 51 51 51 51 52 52 52 53 54 56 58 59 61 61 62 64 67 70 71 72 71 69 70 74 76 77 77 76 75 74 73 73 73 74 75 75 76 76 77 78 78 79 79 80 82 83 83 82 81 80 80 80 81 82 83 84 85 85 85 85 85 84 84
63 62 62 62 61 60 60 61 61 61 61 59 57 56 57 57 57 58 59 58 56 55 54 54 53 53 53 54 54 54 55 57 58 57 57 59 61 62 62 64 66 68 70 70 70 71 75 78 79 78 78 78 77 76 76 75 76 77 78 78 79 79 79 80 80 80 80 81 83 84 84 84 84 84 84 85 85 86 87 87 87 88 88 89 89 89
61 60 60 60 60 59 60 61 62 62 63 62 60 59 59 60 60 60 60 60 59 58 58 58 57 56 55 55 55 56 57 59 60 60 59 58 60 62 62 62 64 65 67 69 70 71 73 76 79 80 81 81 81 81 80 80 80 79 79 79 80 81 81 82 82 82 82 82 83 84 85 85 86 87 87 88 88 89 90 90 90 91 91 92 93 93
54 54 56 59 59 59 60 61 62 63 64 64 63 62 61 62 63 63 62 62 62 61 61 61 60 59 58 58 57 56 57 60 62 62 61 60 61 63 64 65 65 65 65 66 68 69 70 71 74 78 80 81 82 82 82 82 82 81 80 80 81 81 82 83 84 85 85 86 86 87 87 88 89 89 90 91 91 92 93 93 93 93 94 94 95 95
49 49 52 56 59 60 61 62 63 64 65 66 65 64 63 64 65 65 65 65 65 64 64 63 63 62 61 61 60 59 60 61 62 62 61 61 63 65 67 68 69 69 68 66 64 63 65 67 70 74 76 77 78 78 79 81 81 80 79 80 80 81 82 83 84 85 86 87 88 89 89 90 90 91 92 92 93 94 94 94 94 95 95 95 95 96
47 47 49 52 56 59 61 63 64 65 66 67 67 66 65 65 66 67 68 67 67 67 66 66 65 64 63 63 63 63 64 64 64 62 61 62 63 65 67 68 70 72 73 72 68 65 64 65 67 70 72 73 72 71 71 73 75 75 76 76 77 78 79 80 81 82 83 85 86 87 88 88 88 89 89 90 90 90 90 91 92 93 93 94 95 95
46 47 48 50 53 56 60 63 66 67 68 68 69 68 67 67 68 69 70 70 70 70 69 69 68 67 66 66 66 66 67 67 67 66 65 64 63 63 65 67 70 73 75 76 76 74 73 72 72 73 73 72 71 70 69 69 70 70 72 73 74 75 76 77 78 79 80 81 82 83 84 85 86 87 87 88 88 88 89 90 90 91 93 93 94 95
45 46 48 51 53 55 58 62 65 68 70 71 71 71 71 70 70 71 72 73 73 73 73 72 71 70 69 68 69 70 71 71 71 70 69 67 66 65 66 67 70 73 75 77 78 79 79 79 79 78 77 76 75 75 75 73 72 71 72 73 75 76 77 77 78 78 79 80 81 82 83 84 86 87 88 89 89 90 91 91 92 93 94 95 95 96
42 44 47 49 52 54 56 59 63 67 70 72 73 74 74 74 73 73 74 75 76 76 76 76 75 75 73 72 71 71 72 73 74 74 73 71 69 69 69 70 71 73 74 76 78 80 81 82 82 82 81 80 80 80 79 79 78 78 78 79 80 80 80 80 80 80 81 82 83 83 84 85 86 87 88 89 90 91 92 92 93 93 93 94 94 95
39 42 44 47 49 52 54 57 60 63 67 71 74 75 76 77 77 77 77 77 78 78 79 79 79 79 78 77 75 74 73 73 74 75 76 76 74 72 72 74 74 75 76 77 79 80 81 83 84 84 84 84 84 83 83 83 82 83 84 85 85 84 84 83 83 83 83 83 84 85 86 86 87 88 88 89 90 91 91 91 91 92 92 93 93 94
36 39 42 44 47 50 53 55 58 61 64 68 71 74 77 79 80 80 80 80 80 81 81 82 82 82 81 81 80 80 79 77 76 75 75 75 75 75 75 76 77 78 79 80 81 82 82 83 84 85 86 86 86 86 86 86 86 86 87 88 87 87 87 86 85 85 85 85 86 86 87 88 88 88 89 89 90 90 91 91 92 92 92 93 95 95
Wind_Direction
264 264 264 262 261 260 260 260 260 260 260 260 259 257 257 258 258 259 260 259 258 258 260 260 258 258 257 258 258 258 258 258 258 258 257 257 255 255 254 254 254 252 250 249 247 245 242 236 230 227 228 232 236 237 234 234 237 241 246 251 256 262 265 266 264 261 261 261 260 261 261 260 260 262 264 267 272 277 276 275 276 278 281 285 289 293
263 262 261 260 260 260 260 260 261 261 261 260 259 258 257 258 259 259 260 260 259 259 260 260 259 259 258 257 257 256 256 257 257 257 256 255 253 253 254 253 250 248 246 245 243 242 240 236 231 226 225 229 233 236 234 234 237 240 244 248 252 256 259 259 259 260 262 261 259 260 262 263 262 262 263 267 271 272 272 274 276 277 280 284 289 294
261 260 259 258 259 259 260 260 260 260 260 259 259 259 258 258 259 260 260 261 260 260 260 260 260 260 259 257 256 256 256 256 256 255 253 252 252 253 252 250 246 243 241 240 240 240 239 237 233 227 225 227 230 232 232 233 237 241 244 248 249 251 252 252 255 261 265 264 261 260 262 264 263 261 263 267 269 270 271 274 275 276 280 285 290 294
259 258 257 258 259 259 259 259 259 259 258 258 259 259 259 259 260 261 261 261 261 261 261 261 260 260 259 256 255 255 255 254 253 252 252 251 251 251 250 247 243 241 239 238 238 239 240 239 237 230 225 225 226 228 229 232 238 242 244 247 249 249 249 249 254 260 263 262 261 261 263 264 263 262 264 267 269 271 273 274 275 278 282 287 290 293
257 256 257 257 258 258 258 258 258 258 258 258 259 259 260 260 260 262 262 261 262 263 263 262 259 258 257 255 254 254 253 252 250 251 251 250 249 248 245 242 239 236 235 235 236 237 238 238 237 233 226 223 223 225 228 232 237 241 243 246 250 250 251 252 255 259 260 260 260 261 263 264 265 265 266 269 270 271 273 274 276 280 284 287 289 291
256 256 255 256 256 257 257 257 257 257 258 258 258 259 260 261 261 263 264 263 263 263 264 263 259 257 256 254 253 253 251 250 250 250 249 247 245 243 241 239 236 234 232 232 233 234 235 235 234 231 226 222 222 224 228 231 236 239 242 245 249 251 253 255 257 259 260 260 260 262 264 266 267 268 268 269 271 271 272 274 277 282 285 286 287 288
255 254 254 255 255 256 256 257 257 257 258 259 259 259 260 261 262 263 264 264 264 263 263 262 258 255 253 252 252 251 250 251 251 249 245 242 240 238 238 238 237 236 233 231 232 232 232 232 231 229 225 222 222 225 228 231 235 238 241 244 247 250 253 255 257 258 260 261 262 263 265 267 268 269 269 268 269 270 270 273 277 281 284 284 286 288
254 254 254 255 255 256 256 257 257 258 258 258 258 259 260 261 262 263 264 264 263 261 260 259 256 252 252 251 251 251 250 251 251 247 242 238 236 235 236 238 238 237 235 231 230 230 230 230 230 228 225 223 223 226 230 232 236 239 242 245 247 249 251 254 256 257 259 261 262 263 265 267 268 269 269 268 268 269 270 273 277 279 282 283 285 288
253 253 253 253 254 255 255 255 256 256 257 257 259 259 260 261 262 262 261 261 260 259 256 254 252 251 251 251 250 250 250 250 250 246 241 238 236 236 237 238 238 238 236 233 229 229 229 229 229 228 227 226 225 228 231 233 236 240 243 245 247 249 251 253 255 257 259 260 261 262 263 265 266 267 269 268 267 268 270 273 276 278 280 282 284 287
251 250 250 251 251 252 252 253 254 255 255 257 258 259 259 259 259 259 258 258 258 257 255 252 248 248 250 249 248 249 248 248 248 246 241 238 237 236 237 239 240 240 238 235 232 231 229 228 228 229 229 228 228 229 230 232 235 239 242 244 247 250 251 253 255 257 260 261 261 261 262 263 264 266 269 270 269 268 269 272 275 278 280 282 285 287
248 247 247 248 247 248 250 252 252 253 255 256 256 256 257 257 257 257 256 255 255 254 253 249 244 245 249 248 246 247 246 245 246 245 241 238 237 237 238 239 241 241 240 238 236 234 232 230 229 230 230 229 230 231 231 231 233 236 240 242 245 248 250 250 252 255 259 261 262 262 262 263 264 265 267 270 270 270 271 274 276 278 281 283 285 285
246 246 245 245 246 248 250 251 251 253 254 255 254 254 255 255 255 254 253 253 252 251 250 246 241 243 248 248 245 244 244 243 243 242 239 237 236 235 237 239 241 242 242 241 239 237 234 233 232 233 233 232 233 234 234 233 233 235 238 241 243 245 247 248 249 252 255 257 260 262 264 265 267 267 268 269 271 272 273 275 277 279 281 282 283 282
245 245 244 245 247 249 251 251 251 252 253 252 252 252 253 253 253 252 251 249 248 249 249 246 241 243 247 247 245 244 243 242 241 240 238 236 234 233 234 236 239 241 242 241 240 238 236 236 236 236 235 235 235 235 235 236 236 236 238 243 247 248 249 249 250 252 254 255 257 260 264 266 268 269 270 270 271 272 273 275 277 278 279 279 279 280
241 242 242 244 246 248 249 249 249 249 250 251 252 253 253 253 252 251 249 248 247 248 249 247 242 242 245 247 245 243 242 240 239 239 237 235 234 233 235 237 239 242 243 242 241 240 238 238 236 235 234 235 236 236 236 238 239 239 240 244 251 253 253 253 254 255 258 260 261 262 265 267 268 268 269 270 271 272 273 274 275 276 276 277 278 279
238 239 240 242 243 245 246 247 246 247 250 252 253 253 253 252 251 250 249 248 247 249 250 248 244 242 242 244 242 240 239 237 236 236 235 234 232 232 235 238 241 244 247 248 250 248 242 238 237 236 235 235 236 237 237 238 239 241 240 241 247 252 254 256 258 260 263 266 267 268 268 268 268 268 269 270 271 271 272 272 273 273 274 276 278 280
237 238 239 241 243 244 245 246 246 248 250 252 253 253 251 250 249 249 248 248 248 249 250 248 243 239 239 240 239 237 236 235 234 232 228 225 222 220 221 226 235 249 265 278 279 266 254 246 242 241 239 238 237 237 238 238 240 243 243 242 245 249 254 257 260 263 265 267 269 270 270 270 269 269 269 270 270 270 271 271 272 273 274 277 279 281
237 237 238 241 243 243 244 246 247 247 248 250 250 249 248 246 246 246 245 246 246 248 249 245 238 235 236 237 236 234 233 233 230 223 217 217 217 216 211 207 215 239 253 269 277 270 265 259 250 245 244 243 242 240 241 241 242 244 245 245 247 251 255 258 261 264 266 267 269 270 270 270 269 268 268 268 268 269 270 271 272 274 276 278 279 281
235 236 236 237 240 241 243 245 245 244 244 245 245 245 245 244 243 242 241 241 242 243 244 240 234 231 231 233 233 232 231 228 222 213 211 213 212 205 186 167 169 192 212 226 238 249 259 261 256 251 249 249 248 245 244 244 244 245 246 247 249 251 256 260 263 266 267 268 269 269 268 267 264 262 263 264 266 268 269 271 274 276 278 279 280 281
235 237 235 235 239 241 243 244 243 241 241 242 243 243 244 244 243 241 240 239 238 238 238 235 229 226 228 229 229 228 224 217 210 204 203 205 200 189 173 166 172 188 203 215 225 234 244 250 254 253 250 248 248 246 244 244 244 245 247 249 254 257 261 266 269 270 270 269 267 265 263 260 258 258 259 263 266 269 272 274 276 277 277 278 278 278
233 237 237 235 238 241 242 244 243 242 242 242 242 243 242 242 241 241 240 238 235 233 232 230 224 222 224 225 224 222 212 203 199 194 192 193 186 176 169 168 174 185 200 213 222 228 236 243 247 249 249 249 248 246 245 245 246 246 246 248 253 259 262 263 263 259 258 261 263 261 259 258 258 259 262 266 269 272 275 276 277 277 276 276 275 274
229 235 237 235 238 239 239 241 243 243 244 244 244 244 243 242 241 240 239 238 235 229 227 224 218 217 219 219 218 213 202 196 191 184 183 184 178 170 165 165 172 185 202 216 222 225 231 239 246 249 251 251 249 248 247 246 247 246 243 238 234 237 239 236 234 235 238 247 256 261 262 262 262 261 262 264 267 270 274 275 275 275 275 273 272 271
227 233 235 232 234 236 237 239 240 241 243 243 244 245 245 243 241 239 237 235 232 227 224 221 215 215 215 213 210 202 197 195 186 179 181 179 172 165 162 166 181 196 206 212 217 223 228 235 243 248 250 250 249 250 249 247 246 245 243 238 231 228 229 226 225 230 238 245 251 255 260 262 262 261 261 262 265 269 272 273 274 274 273 272 271 271
225 231 233 230 230 233 235 237 238 239 240 242 243 244 244 243 241 239 236 232 229 225 222 219 216 213 211 209 204 197 195 192 182 179 180 174 166 164 169 187 199 201 205 208 213 221 227 231 238 244 248 249 248 250 251 249 247 245 244 243 238 235 234 233 232 236 243 248 253 256 257 257 256 257 261 264 267 270 272 273 273 273 273 273 274 274
224 229 233 230 228 230 233 236 238 238 239 240 242 243 243 241 240 238 235 231 227 224 221 218 215 212 208 205 200 194 193 188 182 181 178 172 170 170 180 203 208 205 209 212 213 219 225 228 234 239 243 246 245 246 249 249 247 246 245 244 242 241 241 239 236 239 247 252 257 258 255 254 255 258 262 264 266 269 271 272 271 271 273 274 275 277
223 227 231 229 227 228 230 234 238 238 237 238 240 241 241 239 238 237 235 231 226 223 220 217 215 212 208 205 200 195 191 186 183 180 175 173 178 179 185 203 210 210 213 215 217 221 223 225 229 233 237 240 243 244 246 245 245 247 247 245 242 241 241 237 233 236 242 244 246 247 248 251 256 260 262 261 263 265 265 264 264 265 268 269 271 274
222 224 228 228 226 226 227 230 234 236 235 235 238 240 239 238 236 236 235 231 226 222 218 214 213 213 209 205 201 197 192 188 184 179 176 178 182 183 191 209 214 215 218 220 222 223 222 223 227 232 236 238 241 244 245 244 242 243 246 246 242 238 234 231 229 231 234 237 239 241 244 251 256 260 262 262 262 261 257 255 256 257 260 264 267 271
221 223 227 228 226 225 226 228 231 234 233 232 233 237 238 236 234 233 233 230 226 222 218 214 212 211 208 204 203 200 195 190 187 182 180 184 185 184 194 210 215 218 220 224 225 224 223 225 228 233 236 235 237 240 244 246 243 241 243 244 240 236 231 227 227 230 233 238 243 245 249 255 259 261 261 257 255 254 252 251 252 253 257 261 265 270
220 222 225 228 227 225 226 228 230 232 233 231 230 233 235 235 232 230 229 228 224 221 218 215 212 210 207 204 203 202 197 193 190 187 186 189 191 190 195 205 213 215 217 223 227 226 225 226 229 232 233 231 233 236 238 241 241 240 243 244 240 235 232 230 228 231 235 238 243 248 251 252 253 253 253 249 247 248 250 252 254 257 259 260 263 266
220 221 223 226 228 226 225 228 231 232 233 233 231 231 233 234 232 231 228 226 224 221 217 216 213 209 206 204 203 202 199 195 194 192 190 192 195 197 199 204 211 214 214 218 224 225 225 226 228 231 230 227 228 231 232 234 236 237 238 240 238 233 232 231 230 231 234 236 239 244 245 246 246 244 244 245 245 245 247 252 257 261 263 264 264 265
222 222 222 224 227 227 225 226 230 232 234 234 233 232 232 232 232 232 229 226 224 221 218 216 214 210 206 204 204 203 200 197 196 195 195 195 196 199 202 205 210 215 215 217 221 224 225 226 229 231 231 228 226 227 227 229 232 232 229 229 231 230 229 230 231 233 234 234 235 239 243 245 246 244 244 246 248 248 251 256 260 263 266 268 269 269
224 223 223 224 226 227 226 226 229 231 233 235 234 233 231 231 231 230 229 226 224 222 220 217 214 212 208 205 204 204 201 199 198 197 197 198 198 200 204 207 210 214 218 220 223 225 226 228 230 232 233 231 227 225 224 227 231 232 230 228 229 231 231 230 231 232 232 232 233 239 245 248 247 247 249 252 254 255 257 258 259 261 264 267 269 272
226 225 225 224 225 227 227 227 228 230 232 234 235 234 232 230 229 229 228 226 225 223 222 219 216 213 211 207 205 205 203 201 200 199 199 200 201 202 205 208 211 214 217 221 226 228 228 230 232 233 234 234 231 228 227 230 232 233 234 233 231 233 235 235 234 233 232 233 233 238 246 252 252 251 252 254 257 258 259 260 261 263 265 268 270 273
226 226 227 226 226 227 228 229 228 229 230 232 233 233 232 230 228 227 227 227 225 224 223 221 218 216 214 211 208 206 205 203 202 201 201 202 204 206 207 209 211 214 217 221 226 230 229 230 233 234 235 235 233 231 230 231 233 234 235 236 235 235 236 237 236 235 235 235 235 238 244 251 254 255 256 257 259 260 260 261 263 265 267 269 270 272
227 227 228 228 228 227 228 229 229 229 230 230 230 231 232 230 228 226 226 227 226 225 224 222 221 219 217 215 213 210 208 206 205 204 204 204 206 208 211 212 213 215 218 222 227 230 231 232 234 236 236 235 234 233 232 233 234 235 237 238 238 238 237 237 237 236 237 238 240 242 245 248 252 254 257 259 260 261 262 262 262 263 265 266 267 269
229 228 228 229 230 231 231 231 230 230 231 231 231 232 233 233 231 228 227 228 228 227 225 224 223 222 219 218 217 215 212 210 209 208 207 207 208 209 212 214 215 216 220 224 227 230 232 234 235 236 237 237 236 235 235 235 236 237 238 239 239 240 240 239 239 239 239 240 242 245 247 249 251 253 255 257 258 260 262 263 264 264 265 266 267 268
230 230 230 231 232 233 234 234 233 232 232 233 234 234 234 234 234 232 228 227 229 229 228 226 224 224 222 220 219 217 216 215 213 211 211 211 211 211 213 215 217 219 221 225 228 230 233 235 236 236 237 238 238 237 237 238 239 239 240 240 240 241 241 241 241 242 243 244 245 247 248 250 252 254 255 256 258 259 260 261 262 263 264 265 265 267
228 230 231 232 234 234 236 237 236 234 234 235 236 235 234 234 235 234 232 229 227 228 229 228 226 225 224 223 221 219 218 218 216 214 214 215 214 214 214 216 219 221 223 226 230 233 234 236 237 237 237 238 239 240 239 239 241 242 242 241 241 242 242 242 243 244 246 247 248 249 250 252 253 254 255 257 259 260 261 262 262 263 263 264 265 266
228 228 229 230 232 234 236 238 238 236 234 234 236 237 236 235 234 234 234 233 230 228 229 229 228 226 224 223 222 222 220 219 218 217 217 217 217 217 217 218 221 224 225 228 231 233 235 236 237 237 237 237 238 240 241 241 242 244 245 244 243 243 243 244 244 245 247 249 250 251 252 253 254 256 257 258 259 261 262 263 263 264 265 265 266 267
227 228 229 229 230 232 234 237 239 239 236 234 236 238 238 237 236 236 235 235 234 232 230 229 229 229 227 225 224 224 224 222 220 219 219 220 219 219 219 221 224 226 227 229 232 234 235 236 236 237 238 238 238 239 240 241 242 243 245 247 246 245 245 245 246 246 246 248 250 252 253 254 255 257 258 259 260 261 262 263 264 265 266 267 267 268
226 227 228 229 230 230 232 235 238 240 238 234 235 238 239 238 238 237 236 236 237 236 235 233 231 230 230 229 227 227 226 226 224 222 220 221 221 221 221 223 226 228 229 231 233 236 237 238 237 237 238 239 239 239 240 241 242 243 245 248 249 249 248 248 249 249 248 248 249 250 252 254 256 257 258 259 260 261 262 262 263 265 266 267 268 269
225 225 225 227 229 230 231 233 235 238 239 236 235 236 238 239 238 238 239 239 240 240 239 238 236 233 231 231 231 229 228 228 228 227 224 223 223 223 224 224 226 228 230 232 235 237 239 240 240 240 240 240 240 241 242 242 243 243 245 247 250 251 252 252 252 253 253 252 251 251 252 254 256 257 258 259 260 261 262 263 264 265 267 268 269 270
225 224 224 225 227 229 230 232 234 237 239 238 236 236 237 238 238 239 240 240 240 240 240 240 239 237 235 234 233 232 231 230 230 230 228 226 224 225 226 226 227 228 230 231 234 237 240 241 242 242 243 242 242 243 243 244 244 244 245 247 249 251 253 254 255 256 257 258 257 257 256 256 257 258 259 261 262 263 264 265 266 267 268 269 270 271
228 227 226 227 228 229 231 233 234 236 238 239 238 237 238 239 239 239 240 241 240 240 239 240 239 239 238 237 236 235 234 233 232 231 230 228 226 226 227 228 229 229 230 231 233 236 239 241 242 242 243 243 243 244 244 245 246 246 247 248 249 251 252 254 255 257 258 259 260 261 261 261 261 262 262 263 264 266 267 268 269 269 270 270 271 272
233 232 230 230 230 230 231 233 235 236 238 239 239 238 239 240 241 240 240 240 240 240 239 239 239 239 239 239 239 238 238 237 236 234 232 231 229 228 227 227 228 230 231 233 235 238 240 243 244 243 243 243 244 244 245 246 247 248 249 250 251 252 253 254 255 256 257 259 260 261 262 262 263 264 265 265 266 267 268 269 270 270 271 272 272 273
236 235 233 232 232 231 231 233 235 237 238 240 240 239 239 240 242 243 242 242 242 241 241 240 240 239 239 239 239 239 239 239 239 238 236 233 232 231 230 229 228 230 231 234 237 241 244 246 248 247 246 245 245 245 246 247 248 249 250 251 252 253 254 255 256 257 258 259 260 261 262 263 264 264 265 266 267 268 269 270 270 271 272 273 273 274
235 235 234 233 233 233 233 233 235 237 238 240 241 241 240 240 241 243 244 245 245 245 244 243 242 241 240 240 240 240 240 240 240 240 238 235 233 232 233 233 233 232 232 233 235 237 240 244 247 249 250 249 249 248 248 248 249 250 251 251 252 253 254 255 257 258 259 260 261 261 262 263 264 265 266 267 268 269 270 270 271 272 272 273 274 274
234 234 234 233 233 233 233 233 234 236 238 239 241 242 242 241 241 242 244 245 246 247 247 246 245 244 242 241 241 241 241 241 242 241 240 238 237 235 235 235 236 235 235 235 235 235 236 238 241 244 247 249 250 252 252 252 252 251 250 250 251 252 254 255 256 258 259 260 261 262 262 263 264 264 265 265 266 267 268 269 269 270 271 271 272 272
235 234 234 234 234 233 233 233 233 235 236 238 240 241 242 242 242 242 243 245 246 247 248 249 249 248 246 244 242 242 242 243 244 244 243 241 240 240 239 238 237 237 236 237 238 238 239 240 241 243 245 248 251 254 256 257 257 256 254 254 254 255 256 257 258 258 259 260 261 262 263 263 264 264 265 265 266 266 267 268 268 269 270 270 271 271
239 238 237 237 236 236 235 235 235 235 236 237 238 240 242 242 243 243 243 244 245 246 247 248 250 250 251 250 247 245 244 244 245 246 247 245 243 242 242 242 241 240 239 239 239 240 241 242 244 245 247 249 252 255 257 258 259 259 259 259 259 259 259 259 259 259 260 260 261 262 262 263 264 264 265 265 266 266 267 268 268 269 270 270 271 272
242 242 241 241 240 239 239 238 238 237 237 238 238 239 241 242 243 243 244 244 245 246 247 248 249 250 251 252 252 251 250 248 246 246 246 247 246 245 244 244 244 243 243 242 242 242 242 243 244 246 248 250 252 253 255 256 257 258 259 260 260 260 260 260 260 260 260 261 261 262 263 263 264 264 265 265 266 266 267 268 268 269 270 270 270 271
243 243 243 242 242 242 241 241 240 240 240 240 240 240 241 242 243 244 244 245 245 245 246 248 249 250 251 252 253 253 254 253 252 250 248 247 247 246 245 245 245 245 245 245 245 245 245 246 247 248 249 251 253 254 255 256 257 258 259 260 261 261 261 261 261 262 262 262 263 263 263 264 264 264 264 265 265 266 267 268 268 268 269 269 270 270
Height
10571 10574 10573 10570 10568 10571 10575 10577 10580 10584 10587 10590 10592 10593 10593 10593 10591 10588 10590 10595 10599 10606 10607 10608 10615 10619 10618 10616 10614 10617 10620 10620 10620 10625 10631 10634 10638 10641 10646 10652 10657 10660 10660 10663 10666 10667 10669 10674 10677 10678 10677 10677 10677 10677 10679 10680 10679 10677 10675 10675 10676 10679 10680 10681 10682 10683 10684 10685 10686 10687 10687 10689 10690 10690 10692 10693 10693 10694 10695 10695 10696 10696 10697 10697 10698 10699
10564 10566 10563 10558 10560 10564 10568 10572 10575 10578 10580 10582 10583 10585 10586 10585 10583 10582 10585 10587 10592 10601 10600 10600 10608 10611 10610 10608 10606 10610 10614 10613 10614 10619 10624 10627 10630 10636 10641 10646 10649 10650 10651 10654 10657 10657 10660 10665 10669 10672 10671 10671 10670 10671 10675 10676 10675 10673 10671 10670 10673 10675 10677 10678 10678 10679 10680 10681 10682 10683 10684 10685 10687 10688 10688 10689 10690 10691 10691 10692 10693 10693 10694 10694 10695 10696
10555 10555 10550 10549 10553 10558 10562 10566 10569 10571 10572 10573 10575 10577 10578 10578 10577 10577 10580 10580 10585 10594 10593 10594 10602 10604 10600 10599 10599 10604 10608 10607 10608 10611 10616 10620 10625 10632 10637 10638 10639 10640 10642 10645 10647 10648 10651 10656 10662 10665 10666 10666 10665 10665 10669 10671 10670 10669 10666 10666 10668 10670 10672 10674 10674 10674 10675 10677 10678 10679 10681 10682 10684 10684 10685 10686 10687 10688 10688 10689 10689 10690 10690 10691 10692 10693
10546 10543 10541 10544 10548 10552 10555 10559 10561 10563 10564 10565 10568 10570 10570 10570 10572 10571 10572 10575 10580 10586 10585 10588 10597 10596 10591 10590 10592 10598 10602 10601 10601 10604 10609 10616 10623 10628 10630 10630 10631 10633 10635 10637 10640 10643 10646 10651 10656 10659 10660 10661 10660 10661 10664 10664 10664 10664 10663 10663 10663 10665 10667 10669 10670 10670 10671 10673 10674 10676 10678 10679 10680 10681 10682 10682 10683 10684 10685 10685 10686 10686 10687 10688 10688 10689
10536 10533 10535 10539 10542 10545 10548 10550 10553 10554 10556 10559 10561 10562 10561 10563 10566 10565 10565 10571 10576 10577 10578 10583 10590 10588 10582 10583 10586 10592 10595 10593 10594 10599 10607 10614 10619 10621 10622 10621 10624 10626 10629 10631 10634 10638 10641 10646 10650 10654 10656 10656 10656 10656 10657 10658 10658 10659 10659 10658 10659 10660 10662 10664 10666 10666 10667 10668 10670 10672 10674 10675 10676 10677 10678 10679 10680 10681 10681 10682 10682 10683 10683 10684 10684 10685
10527 10525 10529 10533 10534 10538 10540 10542 10545 10546 10549 10552 10553 10553 10555 10557 10560 10560 10560 10566 10570 10569 10571 10577 10582 10581 10576 10577 10581 10586 10587 10586 10590 10598 10605 10610 10613 10614 10614 10613 10616 10619 10622 10624 10628 10633 10637 10641 10644 10648 10650 10651 10650 10650 10651 10652 10652 10653 10654 10654 10655 10657 10658 10659 10661 10662 10663 10664 10666 10668 10670 10671 10672 10673 10674 10675 10676 10677 10678 10678 10679 10679 10679 10680 10681 10681
10517 10517 10523 10526 10528 10531 10533 10534 10537 10540 10543 10544 10544 10547 10550 10550 10552 10554 10555 10559 10562 10563 10567 10571 10574 10574 10570 10571 10576 10580 10581 10582 10587 10595 10601 10605 10606 10607 10606 10607 10610 10614 10617 10620 10624 10628 10632 10634 10638 10641 10644 10645 10646 10646 10647 10647 10647 10648 10649 10650 10651 10653 10654 10655 10656 10658 10659 10660 10662 10664 10665 10667 10667 10668 10670 10671 10672 10672 10673 10674 10675 10675 10676 10676 10677 10678
10508 10512 10518 10520 10522 10525 10526 10527 10530 10534 10536 10535 10537 10541 10543 10544 10546 10549 10551 10553 10554 10558 10563 10564 10567 10568 10564 10566 10572 10575 10576 10578 10583 10590 10597 10599 10599 10600 10600 10602 10606 10609 10613 10617 10620 10622 10625 10629 10633 10636 10637 10639 10642 10644 10645 10645 10644 10645 10646 10647 10648 10649 10651 10651 10652 10654 10655 10657 10658 10660 10661 10662 10663 10664 10666 10667 10667 10668 10669 10670 10670 10671 10671 10672 10673 10674
10503 10509 10512 10513 10517 10519 10518 10520 10524 10527 10527 10528 10532 10535 10537 10539 10541 10543 10546 10546 10547 10553 10557 10558 10561 10562 10559 10563 10568 10570 10572 10574 10578 10585 10591 10593 10593 10595 10595 10597 10601 10605 10609 10613 10614 10617 10621 10625 10628 10630 10631 10634 10639 10641 10643 10643 10643 10644 10645 10645 10645 10646 10647 10648 10648 10650 10652 10653 10654 10656 10658 10658 10659 10660 10662 10663 10663 10664 10665 10666 10666 10667 10667 10668 10669 10670
10499 10503 10505 10508 10512 10510 10509 10514 10519 10520 10520 10523 10528 10530 10532 10534 10535 10537 10540 10541 10543 10548 10551 10552 10556 10557 10555 10559 10563 10565 10567 10570 10573 10579 10585 10588 10589 10590 10592 10594 10597 10601 10606 10609 10610 10613 10617 10621 10623 10624 10627 10631 10634 10637 10639 10640 10641 10642 10642 10643 10643 10643 10644 10644 10645 10646 10647 10648 10649 10652 10653 10654 10655 10657 10658 10659 10660 10661 10661 10662 10662 10663 10663 10664 10665 10666
10492 10496 10500 10503 10503 10501 10503 10510 10514 10513 10515 10519 10523 10524 10526 10528 10529 10532 10535 10536 10540 10544 10543 10545 10551 10552 10550 10554 10558 10560 10562 10566 10569 10574 10579 10583 10585 10587 10589 10591 10594 10598 10602 10605 10608 10611 10614 10616 10617 10620 10624 10628 10630 10632 10634 10635 10637 10638 10639 10640 10640 10640 10641 10642 10642 10643 10643 10644 10645 10647 10649 10650 10651 10653 10654 10656 10657 10658 10658 10658 10659 10659 10660 10660 10661 10661
10487 10491 10495 10496 10495 10496 10501 10506 10508 10508 10511 10515 10517 10519 10521 10523 10525 10528 10530 10532 10536 10538 10536 10539 10546 10548 10547 10550 10553 10555 10558 10561 10564 10569 10574 10578 10581 10583 10585 10588 10591 10595 10599 10602 10606 10609 10610 10612 10615 10618 10622 10624 10626 10628 10630 10631 10632 10634 10635 10635 10636 10637 10637 10638 10638 10639 10639 10640 10641 10642 10644 10646 10647 10648 10650 10652 10653 10654 10655 10654 10654 10655 10656 10656 10656 10657
10484 10487 10489 10490 10491 10493 10497 10501 10503 10504 10506 10509 10512 10515 10517 10519 10521 10524 10525 10528 10531 10531 10529 10535 10543 10545 10544 10545 10548 10551 10554 10558 10561 10565 10569 10574 10577 10579 10581 10585 10589 10592 10596 10600 10603 10606 10608 10610 10613 10616 10617 10619 10621 10623 10625 10627 10628 10630 10632 10633 10633 10633 10633 10633 10634 10635 10635 10636 10637 10639 10640 10642 10643 10644 10645 10647 10649 10650 10650 10650 10650 10650 10651 10651 10651 10652
10479 10481 10484 10485 10486 10489 10492 10495 10498 10499 10502 10505 10508 10511 10513 10515 10517 10519 10521 10524 10526 10525 10526 10532 10539 10542 10540 10540 10544 10547 10551 10555 10558 10561 10566 10570 10573 10576 10579 10583 10587 10591 10595 10599 10602 10604 10606 10608 10608 10609 10610 10612 10615 10617 10619 10621 10624 10627 10630 10632 10631 10628 10628 10629 10629 10630 10631 10632 10634 10636 10637 10638 10639 10640 10641 10642 10643 10644 10645 10645 10645 10645 10646 10646 10646 10647
10474 10476 10478 10479 10481 10485 10487 10489 10493 10496 10498 10501 10504 10508 10509 10511 10513 10514 10517 10520 10521 10522 10524 10530 10535 10538 10536 10536 10540 10543 10547 10551 10554 10558 10562 10567 10570 10574 10577 10582 10586 10590 10595 10599 10602 10603 10604 10603 10602 10603 10605 10607 10609 10611 10613 10616 10618 10621 10626 10629 10627 10624 10624 10625 10626 10627 10627 10628 10629 10631 10633 10634 10635 10635 10636 10637 10638 10638 10639 10639 10640 10640 10641 10641 10641 10642
10469 10472 10473 10474 10477 10481 10482 10485 10489 10493 10495 10498 10501 10503 10504 10506 10508 10511 10514 10516 10518 10519 10522 10526 10531 10533 10531 10532 10536 10539 10543 10547 10551 10555 10560 10563 10566 10570 10574 10579 10585 10590 10596 10601 10603 10603 10602 10601 10600 10601 10602 10603 10604 10606 10609 10611 10614 10617 10621 10624 10623 10621 10622 10622 10623 10624 10624 10624 10625 10627 10628 10629 10630 10630 10631 10631 10631 10632 10632 10633 10634 10635 10636 10636 10636 10636
10465 10467 10469 10471 10474 10476 10478 10481 10486 10489 10492 10494 10496 10497 10498 10501 10504 10507 10509 10512 10514 10516 10518 10522 10526 10527 10528 10529 10532 10535 10539 10543 10548 10552 10556 10558 10562 10566 10571 10578 10585 10592 10598 10602 10605 10604 10601 10598 10598 10598 10599 10600 10601 10603 10605 10608 10611 10614 10616 10619 10620 10620 10620 10620 10621 10621 10621 10621 10621 10621 10622 10623 10624 10624 10624 10625 10625 10625 10626 10627 10628 10630 10631 10631 10631 10632
10461 10461 10464 10467 10469 10471 10474 10478 10482 10485 10487 10489 10491 10492 10494 10498 10500 10502 10505 10507 10510 10512 10514 10518 10521 10522 10524 10526 10529 10532 10536 10541 10545 10549 10552 10554 10558 10562 10566 10571 10579 10589 10595 10600 10605 10605 10599 10593 10593 10595 10595 10596 10597 10599 10601 10604 10607 10610 10612 10615 10617 10618 10619 10619 10619 10618 10617 10616 10615 10615 10616 10617 10617 10617 10618 10619 10620 10620 10621 10622 10624 10625 10626 10626 10626 10627
10456 10456 10459 10463 10464 10467 10472 10474 10477 10481 10483 10485 10486 10488 10491 10494 10496 10499 10501 10503 10505 10508 10510 10513 10516 10518 10520 10522 10526 10530 10534 10538 10542 10545 10548 10551 10555 10559 10561 10563 10570 10581 10590 10596 10600 10599 10592 10586 10586 10586 10587 10588 10591 10593 10596 10599 10602 10605 10608 10612 10616 10617 10619 10620 10618 10616 10611 10608 10607 10608 10609 10610 10610 10611 10613 10615 10615 10615 10616 10617 10618 10619 10620 10621 10621 10622
10451 10451 10454 10459 10461 10465 10468 10470 10473 10478 10479 10481 10483 10485 10488 10490 10493 10496 10498 10500 10502 10504 10506 10508 10512 10514 10516 10519 10523 10527 10532 10535 10538 10541 10545 10549 10553 10558 10561 10564 10568 10576 10584 10589 10591 10589 10582 10577 10577 10578 10579 10581 10585 10588 10591 10594 10597 10600 10605 10612 10617 10618 10618 10618 10615 10609 10602 10598 10599 10601 10603 10604 10606 10608 10610 10610 10611 10611 10611 10612 10613 10614 10615 10616 10617 10617
10447 10447 10450 10455 10458 10461 10464 10467 10470 10474 10476 10478 10480 10482 10484 10487 10489 10492 10494 10496 10498 10500 10502 10505 10508 10509 10512 10516 10520 10524 10529 10531 10533 10537 10541 10545 10549 10554 10558 10564 10571 10578 10584 10588 10588 10582 10575 10572 10571 10572 10574 10577 10581 10583 10586 10589 10591 10594 10599 10606 10610 10610 10609 10609 10605 10598 10593 10594 10596 10597 10599 10601 10603 10604 10605 10605 10606 10605 10605 10606 10607 10608 10609 10610 10611 10612
10444 10443 10446 10451 10454 10457 10461 10463 10466 10469 10471 10474 10476 10478 10480 10483 10486 10488 10490 10492 10494 10496 10498 10500 10503 10505 10509 10513 10517 10521 10525 10527 10530 10533 10536 10540 10545 10550 10555 10560 10566 10573 10578 10581 10579 10573 10570 10569 10568 10567 10570 10573 10576 10578 10580 10583 10585 10588 10591 10595 10598 10599 10599 10597 10594 10591 10591 10594 10595 10595 10595 10597 10598 10599 10599 10600 10601 10600 10600 10601 10603 10603 10603 10603 10605 10606
10440 10440 10442 10447 10451 10453 10457 10459 10462 10465 10467 10470 10472 10474 10476 10479 10481 10484 10486 10488 10490 10492 10494 10496 10499 10502 10506 10510 10514 10518 10522 10524 10527 10529 10533 10538 10541 10546 10553 10557 10558 10559 10562 10564 10563 10561 10562 10564 10563 10564 10566 10569 10571 10573 10575 10578 10580 10582 10584 10587 10591 10593 10593 10592 10591 10591 10592 10593 10593 10593 10593 10593 10593 10595 10595 10596 10596 10595 10595 10596 10597 10597 10596 10597 10598 10599
10436 10437 10438 10443 10447 10450 10453 10455 10457 10461 10464 10466 10468 10470 10472 10475 10477 10479 10482 10484 10487 10488 10490 10493 10496 10499 10502 10506 10510 10513 10517 10520 10523 10525 10529 10534 10536 10538 10544 10549 10550 10549 10552 10554 10554 10554 10557 10559 10560 10561 10563 10565 10566 10568 10570 10573 10576 10577 10579 10581 10585 10587 10588 10589 10590 10590 10591 10591 10590 10589 10589 10588 10590 10592 10592 10592 10591 10591 10590 10590 10591 10591 10591 10591 10592 10593
10431 10432 10434 10438 10443 10446 10449 10452 10453 10456 10459 10461 10463 10465 10467 10470 10473 10475 10478 10481 10483 10485 10487 10490 10492 10495 10499 10503 10506 10509 10512 10515 10518 10522 10526 10530 10532 10533 10535 10540 10544 10546 10548 10549 10551 10552 10554 10556 10558 10560 10561 10561 10562 10564 10566 10569 10570 10572 10573 10576 10579 10581 10582 10583 10585 10586 10587 10588 10586 10584 10584 10585 10587 10588 10588 10587 10587 10587 10586 10586 10586 10587 10587 10587 10587 10588
10426 10428 10430 10434 10439 10442 10445 10447 10448 10450 10453 10456 10459 10460 10463 10466 10469 10471 10474 10477 10479 10481 10483 10486 10488 10492 10496 10500 10503 10505 10508 10511 10515 10519 10523 10526 10529 10533 10536 10540 10542 10543 10544 10545 10547 10550 10551 10553 10555 10557 10558 10558 10559 10561 10561 10562 10565 10567 10568 10571 10574 10576 10577 10578 10579 10580 10582 10582 10579 10578 10579 10581 10583 10583 10582 10582 10582 10582 10583 10583 10583 10583 10583 10583 10583 10583
10422 10425 10426 10430 10434 10438 10440 10442 10443 10445 10448 10452 10454 10456 10459 10462 10465 10467 10470 10472 10475 10477 10480 10482 10484 10488 10492 10497 10500 10502 10505 10509 10513 10516 10518 10521 10524 10527 10530 10533 10534 10535 10538 10541 10543 10546 10548 10550 10551 10553 10555 10555 10556 10557 10556 10556 10559 10562 10564 10566 10568 10571 10572 10573 10574 10575 10576 10575 10573 10574 10576 10578 10578 10578 10576 10576 10577 10577 10577 10578 10578 10579 10579 10579 10579 10579
10418 10421 10423 10425 10429 10433 10436 10437 10439 10440 10443 10447 10449 10452 10454 10457 10460 10463 10465 10468 10471 10473 10476 10478 10480 10484 10489 10493 10496 10499 10502 10506 10509 10511 10513 10517 10519 10519 10519 10522 10524 10528 10534 10537 10539 10541 10543 10545 10546 10549 10551 10552 10551 10552 10552 10552 10553 10557 10559 10561 10563 10566 10567 10568 10569 10570 10571 10571 10571 10572 10573 10574 10574 10573 10572 10572 10572 10571 10572 10572 10572 10573 10574 10575 10575 10575
10413 10416 10418 10421 10424 10428 10432 10433 10434 10436 10439 10442 10445 10448 10450 10453 10456 10459 10461 10464 10466 10469 10472 10475 10477 10480 10484 10488 10491 10493 10497 10501 10503 10506 10508 10511 10513 10513 10513 10515 10517 10522 10528 10531 10532 10534 10537 10539 10541 10543 10546 10547 10547 10548 10549 10549 10549 10553 10555 10556 10558 10560 10561 10561 10564 10566 10566 10567 10569 10569 10568 10569 10569 10569 10569 10568 10566 10566 10567 10568 10568 10568 10568 10568 10569 10570
10408 10411 10414 10416 10419 10422 10426 10428 10430 10432 10434 10437 10441 10444 10446 10449 10452 10455 10457 10460 10462 10465 10468 10471 10473 10476 10479 10482 10484 10487 10492 10496 10498 10501 10503 10505 10507 10509 10510 10511 10513 10517 10521 10524 10525 10528 10531 10533 10535 10538 10540 10542 10543 10544 10545 10546 10546 10548 10550 10551 10553 10554 10555 10557 10559 10561 10562 10564 10565 10564 10563 10564 10564 10563 10563 10562 10561 10562 10563 10564 10564 10564 10562 10562 10562 10564
10404 10406 10408 10411 10414 10417 10421 10423 10426 10428 10430 10432 10436 10439 10442 10445 10447 10450 10453 10456 10458 10461 10463 10466 10470 10472 10474 10476 10479 10482 10487 10491 10493 10495 10498 10500 10501 10503 10506 10508 10510 10514 10517 10520 10522 10523 10525 10527 10529 10532 10534 10536 10538 10540 10542 10542 10542 10544 10545 10546 10547 10548 10550 10552 10554 10556 10557 10558 10558 10559 10558 10558 10558 10558 10558 10557 10556 10558 10559 10560 10560 10559 10558 10557 10556 10557
10399 10401 10403 10406 10409 10412 10415 10418 10421 10423 10425 10428 10431 10434 10437 10440 10443 10445 10448 10451 10453 10456 10459 10462 10465 10468 10470 10471 10474 10477 10481 10485 10487 10489 10491 10493 10496 10499 10501 10504 10507 10510 10513 10515 10516 10517 10519 10521 10524 10526 10528 10530 10533 10535 10536 10536 10537 10538 10539 10540 10542 10543 10546 10548 10549 10550 10551 10551 10552 10554 10553 10551 10551 10552 10552 10552 10552 10553 10553 10553 10553 10553 10553 10552 10551 10551
10393 10396 10398 10402 10404 10407 10410 10413 10416 10418 10421 10423 10426 10429 10432 10436 10438 10441 10443 10446 10448 10451 10454 10457 10460 10463 10466 10467 10469 10472 10476 10479 10481 10484 10486 10488 10491 10494 10496 10499 10503 10505 10507 10509 10509 10509 10512 10515 10517 10519 10521 10523 10525 10527 10528 10529 10530 10531 10532 10533 10535 10537 10540 10542 10543 10545 10546 10546 10547 10549 10548 10546 10544 10544 10545 10546 10548 10548 10547 10547 10547 10546 10547 10546 10546 10546
10387 10390 10393 10397 10399 10401 10404 10406 10410 10413 10416 10418 10421 10423 10426 10430 10433 10436 10439 10441 10443 10446 10449 10452 10456 10459 10461 10464 10466 10468 10471 10474 10477 10479 10481 10484 10487 10490 10492 10495 10498 10500 10502 10503 10503 10503 10505 10507 10510 10512 10513 10514 10516 10518 10520 10522 10523 10524 10526 10527 10529 10531 10533 10535 10537 10538 10539 10540 10541 10542 10542 10541 10540 10539 10539 10540 10541 10541 10541 10541 10541 10541 10540 10540 10540 10541
10381 10385 10388 10391 10394 10396 10398 10400 10404 10408 10410 10413 10416 10419 10422 10425 10428 10432 10435 10437 10439 10441 10444 10447 10451 10454 10457 10459 10462 10465 10468 10470 10473 10476 10479 10482 10484 10485 10487 10489 10492 10495 10496 10496 10496 10497 10499 10500 10502 10505 10505 10506 10508 10511 10513 10515 10516 10518 10519 10521 10522 10524 10526 10528 10530 10531 10532 10533 10534 10535 10535 10535 10534 10534 10534 10534 10534 10534 10535 10535 10535 10535 10534 10534 10534 10535
10377 10381 10384 10387 10389 10392 10393 10396 10399 10403 10406 10409 10413 10416 10418 10420 10423 10427 10430 10433 10434 10436 10439 10442 10446 10450 10452 10454 10457 10460 10463 10466 10469 10472 10475 10476 10478 10479 10481 10484 10487 10489 10490 10490 10490 10492 10493 10493 10495 10497 10497 10498 10501 10503 10506 10508 10510 10511 10512 10513 10515 10517 10519 10521 10522 10524 10525 10525 10526 10527 10527 10528 10528 10528 10529 10528 10528 10528 10528 10529 10529 10528 10528 10528 10528 10529
10372 10376 10380 10382 10385 10387 10389 10391 10394 10398 10402 10406 10409 10411 10413 10415 10418 10421 10424 10426 10429 10431 10434 10438 10442 10445 10448 10450 10452 10455 10457 10459 10463 10466 10468 10469 10471 10473 10476 10479 10481 10482 10483 10485 10485 10486 10487 10488 10489 10490 10491 10493 10494 10496 10499 10501 10503 10503 10504 10506 10509 10510 10511 10513 10515 10516 10517 10517 10518 10519 10519 10520 10520 10520 10521 10522 10522 10521 10521 10521 10521 10521 10521 10521 10521 10521
10367 10371 10375 10377 10379 10382 10384 10385 10388 10392 10397 10401 10403 10405 10408 10411 10413 10415 10417 10420 10423 10426 10429 10433 10437 10440 10442 10444 10446 10447 10449 10452 10455 10459 10461 10463 10465 10467 10470 10473 10473 10474 10477 10479 10479 10479 10480 10481 10481 10483 10485 10487 10488 10490 10493 10495 10496 10496 10497 10499 10502 10502 10504 10506 10506 10507 10509 10509 10510 10511 10511 10511 10512 10513 10514 10514 10514 10514 10513 10513 10513 10513 10513 10513 10513 10513
10361 10365 10369 10371 10373 10376 10379 10380 10382 10385 10390 10395 10397 10398 10402 10406 10408 10409 10411 10413 10416 10419 10424 10427 10430 10433 10436 10438 10440 10441 10443 10445 10448 10451 10453 10455 10458 10461 10463 10465 10466 10467 10470 10472 10472 10472 10472 10472 10473 10476 10478 10480 10482 10484 10486 10488 10489 10490 10491 10492 10493 10494 10497 10497 10497 10498 10500 10501 10502 10503 10503 10503 10505 10506 10506 10506 10505 10505 10504 10504 10504 10505 10505 10505 10505 10505
10354 10358 10361 10363 10366 10370 10373 10375 10376 10378 10383 10388 10391 10392 10395 10399 10401 10402 10404 10406 10409 10414 10418 10422 10425 10428 10430 10432 10434 10436 10437 10439 10441 10443 10445 10448 10451 10454 10456 10458 10459 10460 10462 10464 10465 10465 10465 10464 10466 10469 10472 10474 10476 10477 10479 10482 10483 10484 10485 10485 10485 10486 10489 10489 10489 10489 10491 10492 10493 10494 10494 10495 10497 10498 10497 10497 10496 10495 10495 10495 10496 10497 10497 10497 10497 10497
10344 10348 10352 10355 10359 10364 10367 10369 10370 10372 10375 10380 10384 10387 10389 10392 10394 10396 10397 10400 10404 10409 10412 10415 10418 10421 10423 10425 10428 10430 10432 10433 10434 10436 10439 10442 10444 10447 10449 10451 10452 10453 10455 10457 10459 10458 10458 10458 10460 10462 10465 10467 10469 10470 10473 10475 10476 10477 10479 10479 10478 10479 10481 10481 10481 10481 10482 10482 10484 10485 10486 10487 10488 10488 10488 10487 10486 10486 10486 10487 10488 10488 10488 10488 10488 10487
10335 10339 10344 10349 10353 10358 10361 10363 10364 10367 10369 10373 10377 10380 10382 10384 10387 10389 10391 10394 10399 10403 10405 10408 10410 10413 10416 10419 10421 10423 10425 10426 10427 10429 10433 10436 10439 10441 10443 10444 10446 10446 10448 10450 10451 10451 10451 10451 10453 10455 10458 10460 10461 10462 10464 10467 10468 10469 10471 10472 10472 10473 10473 10473 10473 10473 10473 10473 10473 10475 10476 10477 10477 10478 10478 10477 10477 10477 10477 10477 10478 10478 10478 10477 10477 10477
10331 10336 10341 10345 10349 10353 10356 10357 10360 10361 10363 10366 10370 10373 10375 10377 10380 10382 10384 10388 10392 10395 10398 10400 10402 10405 10409 10411 10414 10416 10417 10419 10420 10422 10425 10429 10432 10435 10436 10438 10439 10440 10440 10442 10443 10443 10443 10444 10445 10447 10449 10451 10453 10455 10456 10458 10460 10461 10463 10465 10465 10466 10466 10466 10466 10465 10465 10465 10464 10465 10465 10466 10467 10467 10468 10468 10468 10468 10467 10467 10467 10467 10467 10466 10466 10465
10330 10335 10339 10342 10346 10349 10352 10353 10354 10356 10357 10359 10363 10366 10368 10370 10371 10374 10377 10380 10383 10387 10389 10391 10394 10398 10401 10403 10406 10408 10410 10411 10412 10414 10419 10424 10426 10427 10428 10430 10431 10432 10433 10434 10435 10436 10436 10437 10438 10439 10441 10443 10445 10447 10449 10450 10452 10454 10456 10457 10458 10458 10458 10458 10458 10457 10457 10456 10456 10456 10456 10457 10457 10458 10458 10458 10458 10458 10458 10457 10456 10456 10456 10455 10455 10454
10326 10331 10334 10337 10340 10344 10346 10347 10348 10350 10351 10353 10356 10359 10362 10363 10364 10366 10369 10371 10374 10377 10380 10383 10386 10390 10393 10395 10397 10400 10401 10401 10403 10407 10412 10416 10417 10417 10419 10421 10423 10425 10426 10427 10429 10430 10430 10430 10430 10431 10432 10435 10437 10439 10441 10442 10444 10446 10448 10449 10449 10450 10450 10449 10449 10448 10447 10447 10447 10447 10447 10447 10448 10448 10448 10448 10447 10447 10447 10447 10446 10446 10445 10444 10443 10443
10322 10325 10328 10331 10334 10337 10340 10341 10342 10343 10345 10346 10348 10352 10355 10356 10357 10358 10360 10363 10365 10368 10371 10373 10377 10380 10384 10386 10388 10390 10391 10392 10394 10399 10403 10406 10407 10409 10411 10413 10416 10418 10419 10420 10421 10422 10423 10424 10424 10424 10425 10426 10428 10430 10432 10434 10435 10437 10438 10439 10439 10439 10439 10439 10438 10438 10437 10437 10437 10437 10437 10438 10438 10438 10438 10438 10437 10437 10437 10436 10435 10435 10434 10433 10433 10432
10316 10319 10322 10324 10327 10329 10332 10334 10335 10336 10337 10339 10341 10343 10346 10349 10351 10352 10353 10355 10356 10358 10361 10363 10366 10370 10374 10377 10379 10380 10381 10383 10386 10389 10392 10396 10400 10402 10405 10407 10408 10410 10412 10413 10413 10414 10415 10415 10416 10416 10417 10417 10419 10421 10423 10424 10426 10428 10429 10429 10429 10429 10429 10428 10428 10428 10428 10428 10428 10428 10428 10428 10428 10428 10428 10428 10428 10427 10427 10426 10425 10424 10423 10423 10422 10422
10311 10313 10315 10317 10319 10321 10323 10325 10327 10328 10330 10331 10333 10335 10337 10340 10342 10344 10346 10347 10348 10350 10351 10353 10356 10359 10362 10366 10369 10371 10372 10374 10375 10377 10381 10387 10392 10395 10397 10399 10400 10401 10403 10405 10405 10406 10406 10406 10407 10408 10409 10410 10411 10412 10413 10415 10417 10418 10419 10419 10418 10418 10418 10418 10418 10418 10418 10418 10418 10418 10417 10418 10417 10417 10418 10417 10417 10416 10416 10415 10414 10414 10413 10412 10411 10410
10307 10309 10310 10311 10313 10315 10316 10317 10319 10321 10322 10324 10325 10326 10328 10331 10333 10335 10337 10339 10340 10341 10343 10344 10346 10348 10350 10354 10357 10360 10363 10365 10366 10368 10371 10376 10381 10385 10387 10388 10389 10391 10394 10395 10396 10397 10397 10398 10398 10399 10400 10401 10402 10403 10404 10405 10407 10408 10408 10407 10406 10406 10406 10407 10407 10408 10408 10408 10408 10407 10407 10407 10407 10407 10406 10406 10405 10405 10404 10404 10404 10403 10402 10401 10400 10398
10302 10303 10305 10306 10307 10308 10310 10311 10312 10313 10314 10315 10317 10318 10319 10321 10323 10325 10327 10329 10331 10332 10334 10335 10336 10338 10340 10342 10345 10348 10351 10354 10357 10359 10361 10364 10368 10373 10376 10377 10378 10380 10382 10383 10385 10386 10387 10388 10389 10389 10390 10391 10392 10393 10394 10395 10397 10397 10396 10395 10395 10395 10395 10396 10397 10397 10398 10398 10398 10397 10397 10396 10396 10396 10395 10395 10394 10394 10393 10394 10394 10393 10391 10389 10388 10387
10296 10297 10298 10299 10300 10301 10302 10303 10305 10306 10306 10307 10308 10309 10310 10312 10313 10315 10316 10318 10320 10322 10324 10325 10327 10329 10331 10333 10335 10337 10338 10341 10343 10347 10350 10353 10357 10362 10365 10367 10368 10369 10370 10371 10373 10374 10375 10376 10377 10378 10378 10379 10380 10381 10382 10383 10385 10385 10383 10383 10384 10384 10384 10385 10386 10387 10388 10388 10387 10386 10386 10385 10385 10385 10384 10384 10384 10383 10383 10382 10382 10382 10380 10377 10375 10374